Погода в Крюковке

Россия / Тамбовская область     52°45′49″N   40°34′43″E
темп.,
°C
ветер,
м/с
пор.,
м/с
влажн.,
%
обл.,
%
осадки,
мм/ч
давл.,
гПа
погр.,
м
18 апреля, вс
вс1800:00+7ю1189100 0.0 101919
03:00+6юв22920 0.0 101929
06:00+5ююв34915 0.0 101997
09:00+9ю34655 0.0 1019552
12:00+12ююз344985 0.0 10191752
15:00+12ююв3448100 0.1 10191549
18:00+12ююв3453100 0.2 10181116
21:00+9юв3467100 0.3 101991
19 апреля, пн
пн1900:00+8вюв3471100 0.0 101978
03:00+8вюв2271100 0.0 101820
06:00+8в2372100 0.0 101849
09:00+10в126426 0.2 1018592
12:00+11всв3363100 1.7 1017856
15:00+11всв4470100 4.8 1017800
18:00+9в61081100 3.4 1017778
21:00+7в6118868 4.9 1018484
20 апреля, вт
вт2000:00+6в5119230 0.4 1019404
03:00+5в5119432 0.4 1018311
06:00+5в61296100 0.1 1018413
09:00+7в71287100 0.4 1018653
12:00+9в91480100 0.0 1017836
15:00+7в101881100 0.1 1014867
18:00+6в112188100 3.9 1010939
21:00+6вюв142491100 18.2 10071039
21 апреля, ср
ср2100:00+7юв132389100 4.9 10051031
03:00+8юв111991100 5.0 1004863
06:00+9ююв91583100 3.1 1004887
09:00+9ююв101687100 3.6 10051158
12:00+7юз81287100 0.4 1008890
15:00+8ююз61181100 0.4 10121074
18:00+9юз61173100 0.1 1015941
21:00+7юз51082100 0.2 1017426
22 апреля, чт
чт2200:00+7ююз3886100 0.1 1018230
03:00+7ююз3788100 0.3 1019228
06:00+6ююз3484100 0.1 1021103
09:00+10юз456199 0.3 1023884
12:00+12юз4448100 0.1 10241908
15:00+13юз344594 0.1 10241676
18:00+12ююз345788 0.0 1025274
21:00+10ююз3466100 0.0 102674